| time (UTC) | temp F | wind direction | speed MPH | gust MPH | rain 1hr in | rain 24hr in | rain mn in | humidity % | barometer mb |
| 20260505025004 | 56 | 156 | 1.0 | 3.0 | 0.00 | 0.00 | 0.00 | 68 | 1001.1 |
| 20260505024508 | 56 | 156 | 1.0 | 3.0 | 0.00 | 0.00 | 0.00 | 69 | 1001.1 |
| 20260505024002 | 56 | 156 | 1.0 | 3.0 | 0.00 | 0.00 | 0.00 | 69 | 1001.2 |
| 20260505023503 | 56 | 156 | 1.0 | 3.0 | 0.00 | 0.00 | 0.00 | 69 | 1001.3 |
| 20260505023003 | 56 | 156 | 1.0 | 3.0 | 0.00 | 0.00 | 0.00 | 68 | 1001.3 |
| 20260505022506 | 55 | 156 | 2.0 | 3.0 | 0.00 | 0.00 | 0.00 | 69 | 1001.4 |
| 20260505022004 | 55 | 156 | 1.0 | 5.0 | 0.00 | 0.00 | 0.00 | 68 | 1001.4 |
| 20260505021503 | 55 | 156 | 2.0 | 5.0 | 0.00 | 0.00 | 0.00 | 69 | 1001.6 |
| 20260505021004 | 55 | 156 | 2.0 | 5.0 | 0.00 | 0.00 | 0.00 | 69 | 1001.5 |
| 20260505020502 | 55 | 156 | 2.0 | 5.0 | 0.00 | 0.00 | 0.00 | 69 | 1001.7 |
| 20260505020002 | 55 | 156 | 2.0 | 5.0 | 0.00 | 0.00 | 0.00 | 68 | 1001.7 |
| 20260505015502 | 56 | 156 | 2.0 | 5.0 | 0.00 | 0.00 | 0.00 | 68 | 1001.8 |
| 20260505015001 | 56 | 156 | 2.0 | 5.0 | 0.00 | 0.00 | 0.00 | 67 | 1001.8 |
| 20260505014501 | 56 | 155 | 2.0 | 5.0 | 0.00 | 0.00 | 0.00 | 66 | 1001.8 |
| 20260505014003 | 56 | 155 | 3.0 | 5.0 | 0.00 | 0.00 | 0.00 | 66 | 1001.7 |
| 20260505013501 | 57 | 152 | 3.0 | 5.0 | 0.00 | 0.00 | 0.00 | 65 | 1001.5 |
| 20260505013000 | 56 | 149 | 3.0 | 5.0 | 0.00 | 0.00 | 0.00 | 65 | 1001.6 |
| 20260505012600 | 56 | 144 | 2.0 | 4.0 | 0.00 | 0.00 | 0.00 | 66 | 1001.5 |
| 20260505012100 | 56 | 117 | 2.0 | 3.0 | 0.00 | 0.00 | 0.00 | 65 | 1001.5 |
| 20260505011601 | 56 | 117 | 2.0 | 3.0 | 0.00 | 0.00 | 0.00 | 65 | 1001.5 |
| 20260505011102 | 56 | 117 | 2.0 | 3.0 | 0.00 | 0.00 | 0.00 | 67 | 1001.5 |
| 20260505010559 | 57 | 117 | 1.0 | 3.0 | 0.00 | 0.00 | 0.00 | 68 | 1001.5 |
| 20260505010059 | 57 | 117 | 1.0 | 2.0 | 0.00 | 0.00 | 0.00 | 66 | 1001.4 |
| 20260505005559 | 57 | 117 | 1.0 | 2.0 | 0.00 | 0.01 | 0.00 | 63 | 1001.4 |
| 20260505005059 | 57 | 117 | 1.0 | 2.0 | 0.00 | 0.01 | 0.00 | 63 | 1001.4 |
| 20260505004557 | 58 | 117 | 1.0 | 2.0 | 0.00 | 0.01 | 0.00 | 61 | 1001.4 |
| 20260505004057 | 58 | 117 | 1.0 | 2.0 | 0.00 | 0.01 | 0.00 | 60 | 1001.4 |
| 20260505003556 | 58 | 117 | 1.0 | 2.0 | 0.00 | 0.01 | 0.00 | 61 | 1001.5 |
| 20260505003058 | 58 | 116 | 1.0 | 2.0 | 0.00 | 0.01 | 0.00 | 61 | 1001.4 |
| 20260505002556 | 58 | 116 | 1.0 | 3.0 | 0.00 | 0.01 | 0.00 | 59 | 1001.4 |
| 20260505002057 | 58 | 116 | 1.0 | 3.0 | 0.00 | 0.01 | 0.00 | 59 | 1001.5 |
| 20260505001557 | 58 | 58 | 1.0 | 2.0 | 0.00 | 0.01 | 0.00 | 57 | 1001.5 |
| 20260505001056 | 59 | 58 | 0.0 | 3.0 | 0.00 | 0.01 | 0.00 | 59 | 1001.5 |
| 20260505000555 | 59 | 58 | 0.0 | 3.0 | 0.00 | 0.01 | 0.00 | 60 | 1001.5 |
| 20260505000106 | 60 | 58 | 1.0 | 3.0 | 0.00 | 0.01 | 0.00 | 53 | 1001.5 |
| 20260504235555 | 60 | 58 | 0.0 | 4.0 | 0.00 | 0.01 | 0.00 | 51 | 1001.3 |
| 20260504235056 | 60 | 58 | 2.0 | 6.0 | 0.00 | 0.01 | 0.00 | 50 | 1001.3 |
| 20260504234622 | 62 | 53 | 2.0 | 6.0 | 0.00 | 0.01 | 0.00 | 49 | 1001.4 |
| 20260504234054 | 63 | 69 | 2.0 | 6.0 | 0.00 | 0.01 | 0.00 | 45 | 1001.4 |
| 20260504233554 | 67 | 46 | 3.0 | 8.0 | 0.00 | 0.01 | 0.00 | 41 | 1001.3 |
| 20260504233057 | 71 | 35 | 2.0 | 8.0 | 0.00 | 0.01 | 0.00 | 37 | 1001.3 |
| 20260504232554 | 74 | 185 | 1.0 | 7.0 | 0.00 | 0.01 | 0.00 | 34 | 1001.3 |
| 20260504232054 | 74 | 232 | 3.0 | 7.0 | 0.00 | 0.01 | 0.00 | 33 | 1001.2 |
| 20260504231602 | 74 | 223 | 1.0 | 8.0 | 0.00 | 0.01 | 0.00 | 33 | 1001.1 |
| 20260504231054 | 74 | 221 | 4.0 | 12.0 | 0.00 | 0.01 | 0.00 | 33 | 1001.1 |
| 20260504230558 | 74 | 232 | 8.0 | 14.0 | 0.00 | 0.01 | 0.00 | 31 | 1001.2 |
| 20260504230057 | 74 | 227 | 7.0 | 11.0 | 0.00 | 0.01 | 0.00 | 32 | 1001.1 |
| 20260504225654 | 74 | 225 | 5.0 | 11.0 | 0.00 | 0.01 | 0.00 | 33 | 1001.2 |
| 20260504225053 | 74 | 215 | 7.0 | 12.0 | 0.00 | 0.01 | 0.00 | 32 | 1001.1 |
| 20260504224552 | 74 | 228 | 5.0 | 9.0 | 0.00 | 0.01 | 0.00 | 32 | 1000.9 |
| 20260504224056 | 75 | 218 | 5.0 | 10.0 | 0.00 | 0.01 | 0.00 | 31 | 1000.9 |
| 20260504223552 | 74 | 246 | 4.0 | 12.0 | 0.00 | 0.01 | 0.00 | 32 | 1001.0 |
| 20260504223050 | 74 | 219 | 5.0 | 12.0 | 0.00 | 0.01 | 0.00 | 32 | 1001.1 |
| 20260504222549 | 75 | 256 | 5.0 | 11.0 | 0.00 | 0.01 | 0.00 | 34 | 1001.2 |
| 20260504222049 | 75 | 221 | 3.0 | 14.0 | 0.00 | 0.01 | 0.00 | 33 | 1001.1 |
| 20260504221557 | 75 | 248 | 6.0 | 14.0 | 0.00 | 0.01 | 0.00 | 32 | 1001.2 |
| 20260504221049 | 75 | 225 | 8.0 | 13.0 | 0.00 | 0.01 | 0.00 | 32 | 1001.2 |
| 20260504220548 | 75 | 222 | 5.0 | 10.0 | 0.00 | 0.01 | 0.00 | 35 | 1001.1 |
| 20260504220048 | 75 | 215 | 4.0 | 9.0 | 0.00 | 0.01 | 0.00 | 33 | 1001.1 |
| 20260504215548 | 75 | 150 | 3.0 | 14.0 | 0.00 | 0.01 | 0.00 | 34 | 1001.1 |
| 20260504215046 | 75 | 211 | 3.0 | 14.0 | 0.00 | 0.01 | 0.00 | 35 | 1001.2 |
| 20260504214545 | 75 | 232 | 5.0 | 13.0 | 0.00 | 0.01 | 0.00 | 35 | 1001.4 |
| 20260504214044 | 75 | 234 | 5.0 | 13.0 | 0.00 | 0.01 | 0.00 | 35 | 1001.3 |
| 20260504213544 | 74 | 188 | 8.0 | 12.0 | 0.00 | 0.01 | 0.00 | 33 | 1001.4 |
| 20260504213043 | 74 | 238 | 5.0 | 16.0 | 0.00 | 0.01 | 0.00 | 36 | 1001.4 |
| 20260504212544 | 74 | 246 | 7.0 | 16.0 | 0.00 | 0.01 | 0.00 | 35 | 1001.5 |
| 20260504212041 | 74 | 221 | 8.0 | 16.0 | 0.00 | 0.01 | 0.00 | 34 | 1001.4 |
| 20260504211549 | 74 | 227 | 10.0 | 16.0 | 0.00 | 0.01 | 0.00 | 34 | 1001.5 |
| 20260504211041 | 74 | 138 | 6.0 | 15.0 | 0.00 | 0.01 | 0.00 | 34 | 1001.5 |
| 20260504210541 | 74 | 163 | 5.0 | 15.0 | 0.00 | 0.01 | 0.00 | 36 | 1001.7 |
| 20260504210059 | 73 | 209 | 7.0 | 21.0 | 0.00 | 0.01 | 0.00 | 36 | 1001.7 |
| 20260504205539 | 73 | 245 | 11.0 | 21.0 | 0.00 | 0.01 | 0.00 | 35 | 1001.7 |
| 20260504205042 | 73 | 236 | 8.0 | 22.0 | 0.00 | 0.01 | 0.00 | 35 | 1001.7 |
| 20260504204547 | 73 | 229 | 11.0 | 22.0 | 0.00 | 0.01 | 0.00 | 36 | 1001.7 |
| 20260504204038 | 72 | 234 | 11.0 | 19.0 | 0.00 | 0.01 | 0.00 | 35 | 1001.6 |
| 20260504203539 | 72 | 231 | 8.0 | 19.0 | 0.00 | 0.01 | 0.00 | 37 | 1001.7 |
| 20260504203043 | 73 | 230 | 8.0 | 19.0 | 0.00 | 0.01 | 0.00 | 36 | 1001.8 |
| 20260504202537 | 73 | 220 | 4.0 | 19.0 | 0.00 | 0.01 | 0.00 | 38 | 1001.8 |
| 20260504202037 | 73 | 237 | 10.0 | 19.0 | 0.00 | 0.01 | 0.00 | 35 | 1001.9 |
| 20260504201540 | 73 | 232 | 11.0 | 21.0 | 0.00 | 0.01 | 0.00 | 35 | 1002.0 |
| 20260504201035 | 73 | 252 | 11.0 | 21.0 | 0.00 | 0.01 | 0.00 | 36 | 1002.1 |
| 20260504200534 | 73 | 248 | 12.0 | 18.0 | 0.00 | 0.01 | 0.00 | 35 | 1002.2 |
| 20260504200034 | 74 | 202 | 5.0 | 14.0 | 0.00 | 0.01 | 0.00 | 37 | 1002.1 |
| 20260504195534 | 73 | 242 | 6.0 | 17.0 | 0.00 | 0.01 | 0.00 | 38 | 1002.3 |
| 20260504195033 | 73 | 241 | 7.0 | 17.0 | 0.00 | 0.01 | 0.00 | 37 | 1002.2 |
| 20260504194548 | 72 | 244 | 6.0 | 16.0 | 0.00 | 0.01 | 0.00 | 37 | 1002.4 |
| 20260504194030 | 73 | 246 | 9.0 | 21.0 | 0.00 | 0.01 | 0.00 | 35 | 1002.5 |
| 20260504193529 | 72 | 156 | 7.0 | 21.0 | 0.00 | 0.01 | 0.00 | 37 | 1002.6 |
| 20260504193030 | 72 | 241 | 13.0 | 20.0 | 0.00 | 0.01 | 0.00 | 37 | 1002.7 |
| 20260504192527 | 72 | 242 | 11.0 | 17.0 | 0.00 | 0.01 | 0.00 | 37 | 1002.7 |
| 20260504192029 | 71 | 243 | 10.0 | 20.0 | 0.00 | 0.01 | 0.00 | 38 | 1002.9 |
| 20260504191532 | 72 | 235 | 12.0 | 22.0 | 0.00 | 0.01 | 0.00 | 38 | 1002.8 |
| 20260504191025 | 72 | 239 | 11.0 | 22.0 | 0.00 | 0.01 | 0.00 | 39 | 1002.9 |
| 20260504190525 | 71 | 220 | 14.0 | 21.0 | 0.00 | 0.01 | 0.00 | 39 | 1003.0 |
| 20260504190024 | 71 | 280 | 11.0 | 18.0 | 0.00 | 0.01 | 0.00 | 38 | 1003.0 |
| 20260504185527 | 71 | 252 | 8.0 | 22.0 | 0.00 | 0.01 | 0.00 | 41 | 1003.1 |
| 20260504185024 | 70 | 222 | 12.0 | 29.0 | 0.00 | 0.01 | 0.00 | 41 | 1003.1 |
| 20260504184528 | 70 | 266 | 12.0 | 29.0 | 0.00 | 0.01 | 0.00 | 41 | 1003.3 |
| 20260504184022 | 71 | 263 | 14.0 | 22.0 | 0.00 | 0.01 | 0.00 | 40 | 1003.3 |
| 20260504183523 | 71 | 221 | 9.0 | 19.0 | 0.00 | 0.01 | 0.00 | 42 | 1003.4 |
| 20260504183019 | 70 | 245 | 10.0 | 19.0 | 0.00 | 0.01 | 0.00 | 42 | 1003.4 |
| 20260504182518 | 70 | 273 | 10.0 | 19.0 | 0.00 | 0.01 | 0.00 | 43 | 1003.4 |
| 20260504182018 | 70 | 245 | 14.0 | 21.0 | 0.00 | 0.01 | 0.00 | 43 | 1003.5 |
| 20260504181519 | 70 | 218 | 9.0 | 22.0 | 0.00 | 0.01 | 0.00 | 44 | 1003.6 |
| 20260504181018 | 69 | 235 | 15.0 | 21.0 | 0.00 | 0.01 | 0.00 | 44 | 1003.6 |
| 20260504180518 | 70 | 271 | 12.0 | 19.0 | 0.00 | 0.01 | 0.00 | 42 | 1003.6 |
| 20260504180019 | 70 | 200 | 9.0 | 15.0 | 0.00 | 0.01 | 0.00 | 44 | 1003.7 |
| 20260504175515 | 70 | 255 | 10.0 | 15.0 | 0.00 | 0.01 | 0.00 | 45 | 1003.6 |
| 20260504175014 | 69 | 240 | 6.0 | 14.0 | 0.00 | 0.01 | 0.00 | 47 | 1003.6 |
| 20260504174512 | 68 | 218 | 5.0 | 18.0 | 0.00 | 0.01 | 0.00 | 48 | 1003.7 |
| 20260504174012 | 68 | 277 | 9.0 | 15.0 | 0.00 | 0.01 | 0.00 | 45 | 1003.8 |
| 20260504173511 | 68 | 260 | 10.0 | 15.0 | 0.00 | 0.01 | 0.00 | 46 | 1003.9 |
| 20260504173015 | 69 | 252 | 7.0 | 20.0 | 0.00 | 0.01 | 0.00 | 46 | 1003.9 |
| 20260504172510 | 68 | 244 | 9.0 | 24.0 | 0.00 | 0.01 | 0.00 | 47 | 1004.1 |
| 20260504172009 | 68 | 257 | 13.0 | 24.0 | 0.00 | 0.01 | 0.00 | 46 | 1004.1 |
| 20260504171509 | 67 | 209 | 12.0 | 21.0 | 0.00 | 0.01 | 0.00 | 46 | 1004.0 |
| 20260504171012 | 67 | 237 | 9.0 | 19.0 | 0.00 | 0.01 | 0.00 | 47 | 1004.0 |
| 20260504170509 | 67 | 227 | 9.0 | 19.0 | 0.00 | 0.01 | 0.00 | 48 | 1004.2 |
| 20260504151046 | 63 | 238 | 4.0 | 14.0 | 0.00 | 0.01 | 0.00 | 53 | 1004.8 |
| 20260504150547 | 63 | 202 | 6.0 | 14.0 | 0.00 | 0.01 | 0.00 | 51 | 1004.9 |
| 20260504141037 | 60 | 239 | 10.0 | 19.0 | 0.00 | 0.01 | 0.00 | 51 | 1005.0 |
| 20260504140537 | 60 | 196 | 6.0 | 16.0 | 0.00 | 0.01 | 0.00 | 52 | 1005.0 |
| 20260504130527 | 58 | 213 | 8.0 | 16.0 | 0.00 | 0.01 | 0.00 | 52 | 1005.5 |
| 20260504110507 | 53 | 262 | 4.0 | 10.0 | 0.00 | 0.01 | 0.00 | 55 | 1005.5 |
| 20260504100503 | 52 | 211 | 4.0 | 10.0 | 0.00 | 0.01 | 0.00 | 56 | 1005.3 |
| 20260504081554 | 51 | 226 | 4.0 | 11.0 | 0.00 | 0.01 | 0.00 | 59 | 1006.1 |
| 20260504081053 | 51 | 171 | 5.0 | 11.0 | 0.00 | 0.01 | 0.00 | 59 | 1006.1 |
| 20260504080553 | 51 | 162 | 4.0 | 12.0 | 0.00 | 0.01 | 0.00 | 59 | 1006.1 |
| 20260504050527 | 53 | 219 | 3.0 | 6.0 | 0.00 | 0.01 | 0.00 | 56 | 1007.4 |
| 20260504045525 | 54 | 229 | 4.0 | 8.0 | 0.00 | 0.01 | 0.00 | 55 | 1007.4 |
| 20260504045025 | 54 | 221 | 3.0 | 8.0 | 0.00 | 0.01 | 0.00 | 55 | 1007.4 |
| 20260504044524 | 54 | 222 | 4.0 | 8.0 | 0.00 | 0.01 | 0.00 | 55 | 1007.5 |
| 20260504044024 | 54 | 225 | 4.0 | 8.0 | 0.00 | 0.01 | 0.00 | 55 | 1007.4 |
| 20260504043526 | 54 | 202 | 4.0 | 8.0 | 0.00 | 0.01 | 0.00 | 55 | 1007.5 |
| 20260504043021 | 54 | 240 | 4.0 | 8.0 | 0.00 | 0.01 | 0.00 | 55 | 1007.4 |
| 20260504042520 | 54 | 186 | 3.0 | 7.0 | 0.00 | 0.01 | 0.00 | 55 | 1007.3 |
| 20260504042019 | 54 | 209 | 3.0 | 7.0 | 0.00 | 0.01 | 0.00 | 56 | 1007.4 |
| 20260504041519 | 54 | 257 | 3.0 | 8.0 | 0.00 | 0.01 | 0.00 | 55 | 1007.4 |
| 20260504041019 | 54 | 202 | 2.0 | 7.0 | 0.00 | 0.01 | 0.00 | 56 | 1007.3 |
| 20260504040519 | 54 | 201 | 3.0 | 7.0 | 0.00 | 0.01 | 0.00 | 56 | 1007.5 |
| 20260504040018 | 54 | 223 | 4.0 | 9.0 | 0.00 | 0.01 | 0.00 | 56 | 1007.5 |
| 20260504035518 | 54 | 215 | 3.0 | 9.0 | 0.00 | 0.01 | 0.01 | 57 | 1007.5 |
| 20260504035020 | 54 | 219 | 3.0 | 7.0 | 0.00 | 0.01 | 0.01 | 58 | 1007.5 |
| 20260504034531 | 53 | 223 | 2.0 | 6.0 | 0.00 | 0.01 | 0.01 | 59 | 1007.5 |
| 20260504034022 | 53 | 209 | 1.0 | 6.0 | 0.00 | 0.01 | 0.01 | 58 | 1007.6 |
| 20260504033525 | 53 | 173 | 1.0 | 4.0 | 0.00 | 0.01 | 0.01 | 58 | 1007.5 |
| 20260504033020 | 53 | 197 | 1.0 | 4.0 | 0.00 | 0.01 | 0.01 | 58 | 1007.5 |
| 20260504032516 | 53 | 211 | 1.0 | 4.0 | 0.00 | 0.01 | 0.01 | 58 | 1007.6 |
| 20260504032016 | 54 | 216 | 1.0 | 7.0 | 0.00 | 0.01 | 0.01 | 58 | 1007.5 |
| 20260504031516 | 54 | 196 | 2.0 | 7.0 | 0.00 | 0.01 | 0.01 | 59 | 1007.6 |
| 20260504031015 | 54 | 196 | 2.0 | 7.0 | 0.00 | 0.01 | 0.01 | 58 | 1007.6 |
| 20260504030515 | 54 | 212 | 3.0 | 8.0 | 0.00 | 0.01 | 0.01 | 59 | 1007.6 |
| 20260504030015 | 53 | 223 | 3.0 | 8.0 | 0.00 | 0.01 | 0.01 | 60 | 1007.7 |
| 20260504025516 | 53 | 244 | 3.0 | 8.0 | 0.00 | 0.01 | 0.01 | 60 | 1007.7 |